Regional Weather Roundup
Issued by NWS

Home | Current Version | Previous Version | Text Only | Print | Product List | Glossary Off
Versions: 1 2 3 4 5 6 7 8 9 10 11 12 13 14 15 16 17 18 19 20 21 22 23 24 25 26 27 28 29 30 31 32 33 34 35 36 37 38 39 40 41 42 43 44 45 46 47 48 49 50

000
ASUS43 KLSX 211810
RWRMO

WEATHER SUMMARY FOR MISSOURI
NATIONAL WEATHER SERVICE SPRINGFIELD MO
1200 PM CST TUE FEB 21 2017

NOTE: "FAIR" INDICATES FEW OR NO CLOUDS BELOW 12,000 FEET WITH NO
       SIGNIFICANT WEATHER AND/OR OBSTRUCTIONS TO VISIBILITY.
       CURRENT SKY AND/OR WEATHER CONDITIONS ARE NOT AVAILABLE FOR
       CHILLICOTHE AND FARMINGTON.

MOZ001>031-035>038-043-044-053-054-211900-
...NORTHERN AND WESTERN MISSOURI...

CITY           SKY/WX    TMP DP  RH WIND       PRES   REMARKS
KANSAS CTY INT MOSUNNY   65  45  48 NE6       29.99F
6HR MIN TEMP:  43; 6HR MAX TEMP:  65;

KANSAS C DTWN  SUNNY     65  47  52 NW3       29.98F
6HR MIN TEMP:  49; 6HR MAX TEMP:  65;

LEE`S SUMMIT   MOSUNNY   64  51  62 N6        29.98F
6HR MIN TEMP:  48; 6HR MAX TEMP:  64;

ST JOSEPH      SUNNY     63  44  50 VRB3      30.00F
6HR MIN TEMP:  32; 6HR MAX TEMP:  63;

CHILLICOTHE      N/A     65  47  52 CALM      29.98F
6HR MIN TEMP:  45; 6HR MAX TEMP:  65;

KIRKSVILLE     SUNNY     65  46  50 VRB3      29.97S
6HR MIN TEMP:  47; 6HR MAX TEMP:  66;


$$
MOZ066>068-077>081-088>096-101>105-211900-
...SOUTHWEST MISSOURI...

CITY           SKY/WX    TMP DP  RH WIND       PRES   REMARKS
SPRINGFIELD    LGT RAIN  60  56  86 N6        29.92F
6HR MIN TEMP:  54; 6HR MAX TEMP:  61; 6HR PCP: TRACE;

JOPLIN         MOSUNNY   63  55  75 N6        29.95F
6HR MIN TEMP:  47; 6HR MAX TEMP:  65;

BRANSON        CLOUDY    55  55 100 N10       29.92S FOG

$$
MOZ032>034-039>042-045>050-055>058-069>072-211900-
...CENTRAL MISSOURI...

CITY           SKY/WX    TMP DP  RH WIND       PRES   REMARKS
COLUMBIA       CLOUDY    62  59  90 N10       29.96S
6HR MIN TEMP:  53; 6HR MAX TEMP:  63;

JEFFERSON CITY CLOUDY    64  58  80 N7        29.93F
6HR MIN TEMP:  55; 6HR MAX TEMP:  66;

ROLLA          CLOUDY    59  59 100 NE9       29.92S FOG
6HR MIN TEMP:  56; 6HR MAX TEMP:  60;

SEDALIA        SUNNY     69  54  58 N6        29.96F
6HR MIN TEMP:  52; 6HR MAX TEMP:  70;

WHITEMAN AFB   MOSUNNY   65  56  72 N9        29.95S
WARRENSBURG    MOSUNNY   63  50  63 N6        29.96F
OSAGE BEACH    CLOUDY    62  57  83 CALM      29.94S

$$
MOZ051-052-059>065-211900-
...EAST CENTRAL MISSOURI...

CITY           SKY/WX    TMP DP  RH WIND       PRES   REMARKS
ST LOUIS INTL  LGT RAIN  64  58  80 E7        29.93F
6HR MIN TEMP:  61; 6HR MAX TEMP:  64; 6HR PCP:  0.06;

SPIRIT OF STL  CLOUDY    63  61  93 N3        29.92F FOG
6HR MIN TEMP:  57; 6HR MAX TEMP:  63; 6HR PCP:  0.08;

ST CHARLES     CLOUDY    61  60  97 NE6       29.93F FOG
6HR MIN TEMP:  56; 6HR MAX TEMP:  61; 6HR PCP:  0.09;


$$
MOZ072>076-082>087-097>100-106>115-211900-
...SOUTH CENTRAL AND SOUTHEAST MISSOURI...

CITY           SKY/WX    TMP DP  RH WIND       PRES   REMARKS
CAPE GIRARDEAU CLOUDY    63  52  67 E6        29.91F
6HR MIN TEMP:  55; 6HR MAX TEMP:  63; 6HR PCP:  0.01;

FARMINGTON     CLOUDY    60  55  83 SE6       29.93S
6HR MIN TEMP:  55; 6HR MAX TEMP:  60; 6HR PCP:  0.02;

POPLAR BLUFF   CLOUDY    61  57  87 E6        29.88F
6HR MIN TEMP:  58; 6HR MAX TEMP:  61; 6HR PCP:  0.04;

WEST PLAINS    CLOUDY    60  58  92 NE8       29.88F
6HR MIN TEMP:  56; 6HR MAX TEMP:  60; 6HR PCP:  0.07;


$$




USA.gov is the U.S. government's official web portal to all federal, state and local government web resources and services.